Location: Aldenham
(51.6667°N, 0.3500°W)
Time: 17:47:39
(UTC+00:00)

Explorer 7 - Pass Details

Date: 14 February 2026
Orbit: 430 x 542 km, 50.2° (Epoch: 8 March)

Event Time Altitude Azimuth Distance (km) Brightness Sun altitude
Rises 18:08:00 0° 250° (WSW) 2,489 12.2 -8.9°
Reaches altitude 10° 18:10:07 10° 246° (WSW) 1,634 10.7 -9.2°
Maximum altitude 18:13:46 59° 167° (SSE) 564 6.8 -9.8°
Enters shadow 18:16:53 15° 89° (E) 1,437 8.3 -10.2°
Drops below altitude 10° 18:17:34 10° 87° (E) 1,708 - -10.3°
Sets 18:19:50 0° 84° (E) 2,615 - -10.7°
